Location: *
(45.9500°N, 9.0833°E)
Time: 18:38:32
(UTC+00:00)

Cosmos 2341 Rocket - Pass Details

Date: 03 March 2021
Orbit: 968 x 1005 km, 82.9° (Epoch: 15 April)

Event Time Altitude Azimuth Distance (km) Brightness Sun altitude
Rises 18:28:42 0° 175° (S) 3,699 6.9 -13.9°
Reaches altitude 10° 18:31:15 10° 172° (S) 2,749 6.2 -14.4°
Maximum altitude 18:37:26 62° 93° (E) 1,106 4.0 -15.4°
Drops below altitude 10° 18:43:37 10° 15° (NNE) 2,742 6.3 -16.5°
Sets 18:46:09 0° 12° (NNE) 3,689 7.0 -16.9°
